Wind_Speed
26 28 29 31 33 34 36 37 39 40 41 43 45 46 47 48 50 52 54 55 57 59 61 64 67 70 73 77 78 78 74 70 65 58 51 44 39 37 39 39 39 37 39 40 40 46 45 37 35 38 37 36 34 32 30 27 23 21 24 24 21 21 20
28 30 31 33 35 36 37 38 39 41 42 44 46 47 49 50 51 53 55 57 59 62 65 68 72 76 78 77 73 66 60 55 51 47 42 37 32 31 32 34 36 36 38 43 43 46 48 40 36 38 37 35 32 31 29 26 24 24 25 24 21 21 19
30 31 33 34 35 36 37 38 39 41 43 45 47 48 50 51 53 55 57 59 62 65 69 74 78 78 73 67 60 54 50 45 42 39 35 32 29 28 28 29 33 35 36 41 45 46 48 44 37 35 34 34 33 32 30 26 24 25 25 24 22 21 18
30 31 32 33 35 36 37 38 40 42 44 46 48 49 51 53 55 57 59 63 66 70 76 79 77 70 62 56 52 47 43 39 36 33 30 29 26 24 25 25 27 31 34 38 42 44 47 47 42 36 32 32 35 34 31 28 27 26 24 24 24 20 16
30 31 32 34 35 36 37 39 41 43 45 47 49 51 52 55 57 59 62 66 70 76 80 76 67 59 53 50 46 42 38 34 32 30 27 26 25 23 23 22 23 26 30 34 37 38 42 47 46 39 30 28 32 32 29 27 27 26 23 22 21 17 14
31 32 33 35 36 37 39 41 43 45 47 49 50 52 54 56 58 61 65 69 76 81 77 67 57 51 48 45 41 38 34 30 27 26 24 24 23 22 21 21 21 23 26 30 32 33 38 45 45 40 31 27 30 31 29 27 25 22 21 21 18 14 13
32 33 34 35 37 38 40 42 45 47 48 50 51 53 55 58 61 64 68 74 80 79 70 59 52 47 45 42 39 35 31 28 25 21 20 19 19 19 18 19 19 20 23 26 27 27 34 41 43 40 33 30 31 31 28 26 22 18 19 20 17 13 12
33 34 35 36 38 40 42 44 46 48 49 51 52 54 57 59 63 66 71 78 80 74 64 55 48 44 42 40 37 34 31 28 24 21 18 15 13 12 12 13 15 17 19 20 22 23 30 40 44 39 31 29 31 28 25 23 22 21 20 20 16 13 13
33 34 36 37 39 41 43 45 47 48 50 52 53 55 58 61 64 68 74 80 77 69 61 52 45 42 40 38 36 34 31 28 25 22 19 15 11 9 6 6 8 11 13 14 16 20 29 39 45 37 25 23 24 22 22 22 22 21 21 20 17 15 14
34 35 37 38 40 42 44 46 47 49 51 52 54 56 59 62 65 70 77 79 73 65 58 50 43 40 39 38 36 33 30 28 25 22 19 16 13 10 6 1 3 6 9 12 15 21 28 36 43 34 20 17 18 18 20 20 21 21 20 18 17 16 14
34 36 37 39 41 43 44 46 47 49 51 52 54 57 60 63 66 71 78 77 69 62 55 47 41 39 38 37 35 32 30 28 25 22 19 16 16 14 9 3 2 6 10 13 17 23 27 31 36 29 19 19 21 20 19 20 22 22 19 17 16 15 13
35 36 38 40 41 42 44 45 47 48 51 52 54 57 60 62 66 71 77 74 65 58 52 46 42 39 37 36 34 32 30 28 25 23 19 15 17 17 10 4 4 7 10 13 18 23 26 29 31 27 23 25 25 23 22 23 24 22 17 16 15 13 12
36 37 39 40 41 42 43 45 47 48 50 52 54 57 59 62 65 71 76 71 61 54 49 45 42 40 38 36 34 32 29 28 26 24 21 16 15 15 11 7 6 7 10 14 19 24 27 28 27 25 25 28 27 27 27 27 25 20 16 15 14 12 12
37 38 39 40 41 42 43 45 46 48 50 51 53 56 59 61 65 70 74 67 58 52 48 45 43 41 39 37 35 32 29 28 27 26 24 20 16 13 12 9 7 9 12 15 19 23 26 24 24 25 26 28 29 30 30 28 23 18 16 15 13 11 13
37 38 39 40 41 42 43 45 46 48 50 51 53 55 58 61 64 69 71 64 55 51 48 44 43 42 40 38 35 32 30 30 29 26 24 21 17 13 10 7 8 11 12 14 17 21 23 18 17 23 26 28 30 31 30 26 19 15 15 14 12 12 12
37 38 39 40 41 42 43 44 45 47 49 51 52 54 57 59 62 67 69 62 53 50 47 43 42 42 40 38 35 30 30 31 30 27 24 22 18 13 12 7 8 10 8 12 17 19 19 14 13 19 25 29 32 32 28 22 17 15 14 12 12 12 11
37 38 39 40 41 42 43 44 45 47 49 50 51 53 55 58 61 65 68 62 52 48 46 43 40 39 38 37 34 30 30 31 30 27 26 25 20 16 14 9 7 7 6 11 14 13 13 13 12 20 26 27 28 27 23 19 17 16 13 12 12 11 11
37 38 39 40 41 42 43 43 45 47 48 49 50 52 54 56 59 62 65 63 54 46 44 42 38 37 36 34 32 31 30 29 27 25 25 26 23 19 15 11 8 7 8 8 6 6 9 10 14 24 27 23 23 22 19 17 16 15 12 11 12 12 12
36 38 39 40 41 42 43 43 45 46 48 49 50 51 52 54 57 59 63 63 57 47 43 41 38 35 34 34 32 30 29 28 26 22 21 22 23 20 17 13 9 9 9 8 6 6 9 11 18 26 24 20 20 19 18 17 16 14 12 11 12 13 13
36 38 39 40 41 42 43 43 44 46 47 48 49 50 51 52 54 57 60 62 59 50 41 39 38 36 35 35 35 32 30 29 27 23 18 17 18 17 16 14 11 9 9 11 10 9 10 13 19 24 22 20 18 16 15 15 14 13 11 11 12 13 13
36 37 39 40 41 42 43 43 44 45 46 48 48 49 50 51 53 54 56 59 61 55 45 38 35 35 35 36 35 33 31 29 29 27 21 15 14 14 14 14 12 11 11 13 13 12 11 13 17 20 21 19 17 14 14 13 12 12 12 11 12 13 13
35 37 38 40 41 42 42 43 44 45 46 47 48 48 49 50 51 53 54 56 58 58 53 44 36 33 33 35 34 32 32 30 29 28 25 19 16 16 15 14 12 14 15 15 15 14 14 15 17 19 20 18 16 15 14 13 12 12 13 13 13 14 13
35 36 38 39 40 41 42 43 44 45 45 46 46 47 48 49 50 51 52 53 55 56 57 54 45 37 32 32 33 32 32 32 30 28 26 22 21 20 18 16 13 14 17 15 13 14 15 17 20 19 17 16 15 14 13 12 11 12 14 15 14 14 12
34 35 37 38 40 41 42 43 45 45 45 45 45 46 47 48 49 50 51 51 52 53 55 56 54 47 37 30 30 31 31 32 30 28 24 21 21 22 20 18 14 11 15 14 12 12 13 16 18 17 15 14 13 12 12 11 10 12 14 15 14 14 12
34 35 36 38 39 41 42 43 44 45 44 44 45 45 46 46 47 49 50 50 51 52 52 54 55 54 48 37 29 26 28 30 30 27 23 18 14 14 15 16 14 10 12 12 9 10 13 14 14 13 12 11 11 11 11 10 10 12 14 14 14 13 12
34 34 35 37 38 40 41 42 42 43 43 44 44 45 45 45 46 47 48 49 50 50 51 52 53 54 54 49 38 28 24 26 28 27 24 19 11 7 6 8 10 8 9 11 9 10 12 13 13 11 10 10 10 9 8 9 11 13 15 15 15 13 12
33 34 35 36 37 39 40 41 41 42 42 42 43 44 44 44 44 45 47 48 48 49 49 50 51 52 53 53 49 39 27 22 23 26 25 21 15 9 5 3 5 6 8 11 12 14 15 15 15 13 11 10 9 7 8 9 12 14 16 16 15 14 12
33 33 34 35 36 38 39 40 40 40 41 41 41 42 42 43 43 44 45 46 47 48 48 48 49 50 51 51 52 49 38 25 19 20 23 22 17 13 9 5 3 6 8 11 14 16 17 18 17 15 13 11 8 8 10 11 13 16 17 17 16 14 12
33 33 34 34 35 37 38 39 39 40 40 40 40 40 40 40 41 42 44 45 45 46 47 48 48 48 49 50 50 51 48 36 23 16 17 20 18 14 10 7 4 2 7 12 16 17 17 17 16 13 14 13 10 9 12 13 14 17 19 18 17 14 13
33 33 33 34 35 36 37 38 39 39 40 40 40 39 39 39 39 40 41 43 44 44 45 46 46 46 47 48 48 49 50 46 35 22 15 15 17 16 11 7 3 1 5 10 15 17 18 17 15 13 15 16 13 11 13 14 15 18 19 19 17 15 13
32 33 33 34 34 35 36 36 37 38 39 40 41 40 40 39 38 37 38 40 42 43 44 44 45 45 45 45 46 47 47 48 44 35 22 14 13 14 13 9 3 1 5 8 13 17 18 19 17 15 15 17 15 14 14 14 15 18 20 19 17 15 14
32 32 33 33 34 34 35 36 36 38 39 40 41 42 41 40 39 38 37 37 39 40 42 43 43 44 44 43 44 45 45 46 46 43 34 22 14 11 11 10 6 1 4 7 11 15 18 20 20 17 17 17 17 16 17 17 17 19 20 19 17 16 15
32 32 32 33 34 34 35 36 36 37 38 40 41 42 42 41 39 39 38 37 37 38 39 40 41 42 42 42 42 43 43 44 44 44 40 33 22 13 9 9 8 4 3 6 9 13 16 19 20 19 18 18 18 18 18 18 19 20 20 19 17 16 16
31 31 32 33 34 34 35 36 36 37 38 39 40 41 41 40 39 38 38 37 37 37 37 38 39 40 40 41 41 41 41 42 43 43 41 39 32 22 13 9 9 7 5 5 8 11 14 16 18 19 19 19 20 21 19 19 20 21 20 19 17 17 16
31 31 32 33 34 35 35 36 37 37 38 39 40 40 40 40 38 38 38 38 37 37 37 37 38 38 39 39 39 39 39 40 41 42 42 40 37 30 20 12 10 10 9 7 7 9 11 13 15 16 17 20 23 24 22 21 22 22 21 20 19 18 17
31 31 32 33 34 35 35 36 36 37 38 38 39 39 39 38 37 36 36 37 36 36 36 37 37 38 38 37 37 37 37 38 38 40 41 41 39 35 29 19 12 10 11 11 9 9 9 11 12 13 15 18 22 24 23 21 22 22 22 21 20 19 17
31 31 32 33 34 34 35 36 36 37 37 37 38 38 37 36 35 35 35 35 35 34 35 35 36 37 37 36 36 36 36 36 37 38 39 40 40 38 34 27 18 12 12 12 12 11 11 11 12 13 15 17 19 22 22 21 21 22 22 21 20 18 17
Wind_Direction
356 353 351 349 348 346 345 343 341 340 338 337 336 335 333 331 330 328 326 325 323 321 319 317 315 313 311 310 308 304 301 299 297 296 294 290 282 275 271 267 262 255 243 234 231 227 220 219 228 229 230 234 234 235 237 240 241 240 242 244 248 257 261
355 353 351 350 348 346 344 343 341 340 339 338 337 336 334 332 331 329 327 326 324 322 320 318 316 315 314 310 307 304 303 303 301 298 295 289 281 271 264 261 257 251 240 230 227 225 218 215 224 227 229 234 233 230 230 233 237 237 238 243 251 256 256
355 353 351 349 347 345 344 342 341 341 340 340 339 337 335 333 332 331 329 328 326 324 322 320 319 318 314 311 310 310 308 305 301 296 293 288 282 273 265 260 254 250 244 232 227 226 218 211 212 218 225 234 236 231 224 222 229 233 236 243 249 251 250
354 352 350 348 346 345 344 343 343 342 342 341 340 338 337 335 334 333 332 330 328 326 325 324 323 321 318 317 318 316 311 305 299 295 294 289 283 276 268 262 255 250 246 238 232 229 221 212 208 211 217 223 226 226 222 221 228 232 235 242 246 246 244
353 351 349 347 346 345 345 345 345 344 344 343 341 340 339 338 336 335 334 332 330 329 329 329 328 326 325 327 327 323 317 309 301 294 292 289 284 280 272 264 257 249 245 243 238 231 221 212 209 211 218 222 221 221 222 226 229 228 229 235 239 239 239
352 350 349 348 347 346 347 347 346 346 345 344 343 341 341 340 339 338 336 334 333 333 334 334 333 332 334 336 336 334 330 323 312 301 294 289 285 282 275 266 257 247 243 241 238 232 219 210 208 209 217 225 221 218 221 225 226 221 219 228 237 239 238
352 351 349 348 348 348 349 349 348 348 347 345 344 343 343 342 342 340 338 337 337 338 339 339 337 338 341 343 345 346 345 341 334 322 309 299 291 284 274 265 255 244 241 237 234 229 215 205 202 203 213 223 218 213 214 217 219 210 211 229 241 237 231
352 351 350 349 350 351 351 350 349 349 348 347 346 345 345 345 344 342 340 340 342 343 343 343 343 345 347 349 351 353 354 352 350 345 337 324 311 296 276 262 251 242 237 232 229 220 208 201 197 198 213 221 211 204 204 210 212 201 207 226 232 225 226
352 351 351 351 352 352 352 351 350 349 349 348 347 348 348 347 346 344 344 344 346 346 347 347 349 351 352 354 357 358 357 357 358 357 354 350 346 332 304 267 248 240 230 224 218 207 200 198 198 202 214 211 198 193 197 208 210 202 209 223 223 223 230
353 352 352 353 353 353 353 352 350 349 350 349 349 350 350 349 348 347 347 348 349 350 350 351 354 356 356 357 359 1 1 1 5 7 5 5 12 13 1 341 212 215 204 196 194 195 197 198 201 207 207 197 194 192 197 208 212 210 214 219 221 227 235
354 353 354 354 354 354 353 352 351 350 351 351 352 352 351 350 350 349 350 351 352 353 354 356 360 0 360 0 3 7 8 8 12 14 14 17 27 27 10 356 154 176 180 180 184 189 191 193 199 204 195 193 201 199 202 211 210 210 211 213 220 227 233
355 355 355 355 355 354 353 352 352 352 352 353 354 354 353 352 352 352 354 355 356 357 359 1 5 6 7 9 13 16 16 16 18 21 23 27 32 30 14 16 119 154 166 174 181 182 183 186 194 198 192 193 200 203 208 208 202 203 202 205 218 226 231
356 356 356 356 355 354 353 353 353 353 354 355 356 356 354 354 354 355 357 359 359 2 6 8 11 13 15 19 22 23 22 21 23 26 28 26 29 35 38 58 109 145 151 160 172 174 175 179 187 193 193 195 199 202 203 200 197 197 196 206 222 227 230
357 357 357 356 355 354 354 354 354 355 356 356 358 357 356 356 356 357 0 2 3 8 14 17 19 21 23 25 25 25 24 24 26 29 30 29 31 43 54 63 100 133 143 154 167 172 173 175 181 188 191 192 192 193 194 194 195 193 197 214 223 218 221
358 358 357 356 355 355 355 355 355 356 357 358 359 359 357 357 358 360 3 5 7 13 20 23 25 26 27 28 28 28 28 27 27 29 31 31 33 45 50 54 105 129 147 160 165 171 172 168 170 179 181 177 177 185 191 191 190 191 201 213 207 199 208
358 358 357 356 356 356 356 356 357 358 359 360 1 0 359 359 360 2 6 8 9 14 21 25 28 29 29 31 31 30 29 27 27 29 31 32 33 42 45 54 115 125 142 165 166 166 156 134 139 164 168 165 169 181 189 187 185 190 197 197 187 186 194
359 358 357 357 357 357 358 358 358 359 0 1 2 2 1 1 1 3 7 10 11 15 20 24 27 28 30 32 31 27 27 29 31 32 33 35 35 41 48 61 105 112 128 162 170 166 138 110 127 154 157 159 168 178 183 181 182 182 179 181 178 177 185
359 358 357 358 358 359 359 359 360 1 1 2 3 3 2 2 3 4 8 12 12 14 19 22 22 23 25 28 28 25 26 29 33 34 35 37 38 41 49 60 84 98 112 138 165 162 124 105 136 153 154 159 167 173 175 176 172 164 166 176 173 173 184
358 357 358 358 359 360 360 0 1 1 1 2 3 4 4 4 4 5 8 13 13 13 16 20 21 20 21 23 23 24 25 26 29 32 34 36 37 41 48 57 79 96 96 95 103 123 113 109 136 147 149 152 158 163 166 162 153 151 164 175 170 172 183
358 358 358 359 360 0 1 1 2 2 2 3 4 4 5 5 5 6 8 13 15 14 13 16 19 19 18 18 19 22 27 29 29 30 33 36 38 46 53 58 78 98 90 87 99 113 113 119 136 143 145 148 152 156 153 147 143 148 162 171 168 173 180
357 357 358 359 0 1 1 2 2 2 2 3 4 4 5 6 6 7 9 12 16 16 14 12 13 15 15 14 14 19 27 33 34 32 32 37 45 59 67 64 80 106 102 92 101 116 125 130 140 147 150 151 153 150 143 141 145 150 159 169 171 173 179
357 357 357 358 0 1 1 2 3 3 3 4 4 4 5 6 7 7 9 12 15 17 17 14 10 9 13 15 15 17 23 32 38 38 37 44 58 70 75 72 87 118 120 104 103 118 132 135 137 142 148 152 154 150 142 144 150 152 161 172 174 175 177
356 355 356 358 359 360 1 2 3 3 3 4 3 4 5 7 7 7 8 10 13 16 18 18 15 10 9 13 16 17 19 25 36 45 48 58 73 78 76 74 86 123 133 120 106 111 125 132 132 135 145 154 156 153 148 150 155 161 170 176 175 173 175
354 354 355 356 358 359 0 2 3 3 3 3 3 4 5 6 7 7 7 9 11 14 16 18 19 16 11 8 11 16 18 19 27 43 55 68 83 83 77 73 80 119 144 137 119 115 121 128 131 135 147 158 164 166 164 161 162 171 176 177 174 173 174
352 353 353 355 356 358 360 2 3 2 3 3 3 4 5 6 6 7 7 8 10 12 14 16 18 20 18 13 8 10 17 18 20 32 47 64 86 86 74 66 69 105 153 158 144 136 132 128 132 141 150 159 170 174 168 162 164 172 178 177 175 175 177
351 352 352 353 355 357 359 1 2 2 2 2 3 4 5 5 6 6 7 7 8 10 12 14 16 18 20 19 15 10 12 18 19 24 34 46 64 83 82 67 61 90 159 183 184 166 149 137 141 153 159 165 174 174 164 161 165 172 177 179 177 176 178
349 350 351 351 353 356 358 360 0 1 2 3 3 4 4 4 5 6 6 7 8 9 10 13 14 16 18 20 20 17 13 14 18 20 25 33 41 50 64 80 80 105 164 199 195 178 171 166 167 174 182 182 184 184 174 167 169 174 179 181 179 178 179
348 348 349 350 351 354 356 358 359 1 2 3 3 4 4 4 4 5 6 6 7 8 9 11 13 15 17 18 20 20 18 15 15 17 21 26 32 39 43 42 77 125 165 196 194 186 186 186 185 194 206 207 205 201 191 180 175 178 182 184 182 179 178
346 347 348 348 350 352 354 357 358 359 1 2 3 4 4 5 4 4 5 6 7 8 9 10 11 13 15 17 19 20 20 19 17 15 16 21 25 31 38 39 39 137 173 185 189 192 196 194 193 202 212 216 220 211 199 190 183 182 185 186 184 179 178
344 345 346 347 348 350 352 354 356 358 360 1 2 2 3 5 6 5 4 4 5 7 8 9 10 11 13 15 17 19 21 21 20 18 13 16 21 22 24 30 31 220 202 194 192 195 198 198 198 200 204 213 223 219 206 199 193 189 188 187 185 180 178
343 344 344 345 346 348 349 352 354 356 358 359 359 359 1 3 5 6 5 4 5 6 8 8 8 10 11 14 16 18 19 20 21 21 16 11 13 17 17 16 14 207 207 208 204 202 203 206 207 205 205 213 221 222 217 211 201 194 190 188 186 182 180
341 342 343 344 345 346 347 349 351 353 356 357 357 357 357 360 2 4 5 5 6 7 7 7 7 8 9 12 14 16 18 20 21 21 19 14 5 2 8 9 3 304 210 208 205 203 206 210 213 212 211 217 223 224 223 218 208 198 192 189 188 184 185
338 340 341 342 343 344 345 347 349 351 354 354 355 355 355 357 359 1 3 4 6 8 8 7 7 7 8 10 12 15 17 19 21 21 20 18 12 358 347 353 355 336 247 218 210 207 206 209 213 215 216 220 225 226 222 216 207 198 192 190 190 188 191
337 338 339 340 342 343 344 346 347 350 352 353 353 353 354 355 356 358 0 2 4 6 7 7 7 7 8 8 10 13 15 18 20 21 21 19 16 8 350 329 329 327 297 240 222 218 216 215 216 217 216 218 222 221 214 205 201 197 193 192 193 195 197
336 336 337 339 341 343 343 344 346 348 350 352 352 352 353 354 355 356 358 360 1 3 5 7 7 7 7 8 8 11 13 16 18 19 20 21 19 14 4 338 313 312 308 282 245 228 224 223 221 218 216 216 218 216 210 200 197 196 194 195 198 201 200
334 335 336 338 340 342 343 343 345 347 349 350 351 352 352 353 353 354 355 358 359 1 3 5 6 7 7 7 7 9 11 14 16 18 19 20 20 18 12 358 328 302 299 295 277 251 235 229 225 219 216 216 216 215 211 203 199 197 196 199 203 205 203
333 334 335 337 338 340 341 343 344 346 348 349 350 351 351 351 352 352 353 355 358 359 0 2 4 6 6 5 6 8 9 12 14 16 18 19 19 19 17 10 353 319 291 285 278 263 246 233 226 220 217 215 216 216 212 205 202 201 200 203 207 208 207
Height
5796 5794 5791 5788 5785 5782 5778 5775 5771 5768 5764 5760 5755 5751 5745 5740 5735 5730 5724 5718 5712 5706 5699 5692 5685 5677 5670 5662 5653 5644 5636 5630 5626 5623 5622 5621 5620 5620 5619 5620 5622 5626 5629 5634 5638 5642 5648 5654 5658 5662 5664 5666 5668 5670 5672 5673 5675 5677 5677 5677 5679 5679 5680
5795 5792 5789 5786 5783 5780 5777 5773 5770 5766 5762 5757 5752 5747 5742 5737 5732 5726 5720 5713 5707 5700 5692 5684 5676 5667 5658 5648 5639 5631 5625 5620 5616 5614 5612 5612 5612 5612 5612 5613 5614 5617 5620 5625 5630 5633 5639 5647 5653 5656 5659 5661 5663 5667 5669 5671 5672 5674 5674 5675 5676 5677 5678
5793 5791 5788 5785 5782 5779 5776 5772 5769 5764 5760 5755 5750 5745 5739 5734 5728 5722 5715 5708 5701 5693 5684 5675 5666 5655 5644 5635 5627 5621 5616 5612 5609 5606 5605 5604 5605 5606 5607 5607 5608 5610 5613 5617 5622 5627 5632 5640 5646 5650 5654 5657 5660 5663 5666 5668 5669 5670 5671 5672 5673 5675 5677
5793 5790 5788 5785 5782 5779 5775 5771 5767 5762 5758 5753 5747 5742 5736 5730 5724 5717 5710 5702 5694 5685 5675 5665 5654 5643 5633 5625 5618 5613 5607 5604 5602 5600 5599 5599 5600 5601 5601 5602 5603 5605 5607 5610 5615 5620 5627 5633 5639 5643 5648 5652 5655 5658 5661 5664 5666 5667 5668 5669 5671 5673 5674
5793 5790 5787 5784 5781 5777 5774 5769 5765 5760 5755 5750 5745 5739 5733 5727 5720 5713 5705 5697 5687 5677 5666 5654 5642 5633 5625 5618 5612 5606 5601 5598 5596 5595 5595 5594 5595 5596 5597 5598 5599 5601 5603 5605 5609 5615 5621 5628 5633 5637 5642 5646 5650 5654 5658 5661 5662 5663 5665 5666 5668 5670 5672
5792 5789 5786 5783 5779 5776 5772 5767 5763 5758 5753 5748 5742 5736 5730 5724 5716 5708 5700 5691 5680 5669 5656 5644 5635 5627 5620 5614 5608 5602 5597 5594 5591 5590 5590 5590 5590 5591 5592 5593 5595 5596 5598 5601 5604 5610 5616 5623 5629 5634 5638 5643 5647 5650 5654 5657 5659 5661 5663 5663 5665 5668 5669
5790 5787 5784 5781 5778 5774 5769 5765 5760 5755 5750 5745 5740 5734 5727 5720 5712 5704 5694 5684 5673 5660 5648 5638 5630 5622 5616 5611 5606 5601 5596 5592 5589 5587 5586 5586 5586 5587 5588 5589 5591 5593 5595 5597 5601 5605 5611 5619 5626 5632 5636 5640 5644 5647 5651 5654 5657 5659 5661 5661 5663 5666 5667
5789 5786 5783 5780 5776 5771 5767 5763 5758 5753 5748 5743 5737 5731 5724 5716 5708 5699 5689 5679 5666 5654 5643 5634 5627 5620 5615 5609 5604 5600 5596 5592 5589 5586 5585 5584 5584 5584 5585 5586 5588 5590 5592 5595 5598 5603 5609 5616 5623 5629 5634 5637 5640 5644 5648 5652 5655 5657 5658 5660 5662 5664 5665
5788 5785 5781 5778 5774 5770 5765 5761 5756 5751 5746 5741 5734 5728 5721 5713 5705 5695 5685 5674 5661 5650 5640 5632 5625 5619 5614 5609 5605 5601 5596 5593 5590 5587 5585 5584 5583 5583 5584 5585 5587 5589 5592 5594 5598 5602 5608 5615 5620 5625 5630 5634 5638 5643 5647 5650 5652 5654 5656 5659 5661 5662 5663
5787 5784 5780 5776 5772 5768 5764 5759 5755 5750 5745 5739 5733 5726 5718 5710 5702 5692 5682 5670 5658 5647 5638 5630 5624 5619 5614 5610 5606 5602 5598 5595 5592 5589 5587 5586 5585 5585 5585 5585 5587 5589 5591 5594 5597 5601 5606 5612 5617 5623 5628 5633 5637 5642 5646 5649 5651 5652 5654 5658 5659 5660 5662
5786 5783 5779 5775 5771 5767 5763 5759 5754 5749 5743 5737 5731 5724 5716 5708 5700 5690 5679 5667 5656 5647 5638 5630 5625 5620 5615 5611 5607 5604 5600 5597 5594 5592 5591 5589 5587 5587 5587 5587 5587 5589 5591 5594 5597 5600 5605 5611 5617 5622 5627 5631 5636 5641 5645 5648 5649 5650 5653 5656 5657 5659 5660
5785 5782 5778 5774 5770 5766 5762 5758 5753 5748 5742 5736 5730 5722 5715 5707 5699 5689 5678 5666 5655 5647 5639 5632 5626 5622 5618 5613 5610 5606 5603 5600 5598 5596 5594 5592 5590 5590 5590 5590 5590 5591 5593 5595 5598 5601 5606 5612 5618 5622 5626 5630 5635 5640 5644 5645 5646 5649 5652 5654 5656 5657 5658
5784 5781 5777 5773 5769 5766 5762 5757 5752 5747 5741 5735 5729 5722 5714 5706 5698 5689 5678 5667 5657 5649 5641 5635 5629 5624 5620 5616 5613 5610 5607 5604 5602 5599 5597 5596 5594 5593 5593 5593 5593 5594 5595 5598 5601 5604 5609 5614 5619 5623 5626 5630 5635 5639 5642 5643 5645 5648 5650 5652 5654 5656 5657
5783 5780 5776 5773 5769 5765 5761 5756 5751 5746 5740 5734 5728 5721 5714 5706 5698 5689 5679 5668 5660 5652 5645 5638 5633 5628 5624 5620 5617 5614 5611 5608 5606 5603 5601 5600 5598 5597 5596 5596 5596 5597 5599 5600 5603 5606 5611 5616 5620 5622 5626 5629 5633 5637 5640 5641 5644 5647 5649 5651 5653 5655 5656
5783 5779 5776 5772 5769 5764 5760 5755 5750 5745 5740 5734 5727 5721 5713 5706 5698 5689 5680 5670 5662 5655 5648 5642 5637 5632 5628 5624 5621 5618 5615 5613 5610 5608 5606 5604 5602 5601 5600 5599 5599 5600 5602 5604 5606 5609 5613 5617 5619 5622 5624 5628 5632 5635 5638 5640 5644 5647 5649 5650 5653 5654 5654
5782 5779 5775 5772 5768 5764 5760 5755 5750 5744 5739 5733 5727 5721 5714 5706 5698 5690 5681 5673 5665 5658 5652 5646 5641 5636 5632 5628 5625 5622 5619 5616 5613 5611 5609 5607 5605 5604 5603 5602 5602 5603 5605 5607 5609 5612 5615 5617 5619 5622 5624 5627 5631 5634 5637 5641 5644 5646 5648 5650 5652 5653 5654
5782 5779 5775 5772 5768 5764 5759 5754 5749 5744 5738 5733 5727 5721 5714 5707 5700 5692 5684 5676 5668 5662 5655 5650 5644 5640 5635 5631 5628 5625 5622 5619 5616 5614 5612 5610 5609 5607 5606 5605 5605 5606 5608 5609 5611 5614 5616 5618 5620 5623 5626 5629 5632 5635 5638 5641 5643 5646 5648 5650 5651 5653 5654
5782 5779 5775 5771 5767 5763 5759 5754 5749 5743 5738 5733 5728 5722 5715 5708 5701 5694 5687 5679 5671 5665 5659 5653 5648 5643 5638 5634 5631 5628 5624 5621 5618 5616 5615 5613 5612 5611 5610 5609 5609 5610 5611 5613 5615 5616 5618 5620 5622 5625 5628 5631 5634 5637 5640 5642 5644 5646 5648 5650 5652 5653 5655
5782 5779 5775 5771 5767 5763 5758 5754 5749 5743 5739 5733 5728 5723 5717 5710 5703 5696 5689 5681 5674 5667 5662 5657 5651 5646 5642 5638 5635 5631 5628 5624 5621 5619 5617 5616 5615 5614 5614 5613 5613 5614 5615 5617 5618 5620 5621 5623 5625 5628 5631 5634 5636 5639 5641 5643 5645 5647 5649 5650 5652 5654 5655
5782 5779 5775 5771 5767 5762 5758 5753 5749 5744 5739 5733 5728 5723 5718 5712 5705 5698 5691 5683 5676 5670 5664 5659 5654 5650 5646 5642 5638 5634 5631 5628 5625 5622 5619 5618 5617 5617 5617 5617 5618 5619 5620 5621 5622 5624 5625 5627 5629 5631 5634 5636 5638 5641 5643 5644 5646 5648 5650 5651 5652 5654 5655
5782 5778 5775 5771 5766 5762 5758 5753 5749 5744 5739 5734 5729 5724 5719 5713 5707 5701 5694 5687 5679 5673 5667 5662 5658 5654 5650 5646 5642 5638 5635 5631 5628 5625 5622 5620 5620 5619 5620 5621 5622 5623 5624 5625 5626 5627 5628 5630 5633 5635 5637 5638 5640 5642 5644 5645 5647 5649 5650 5651 5652 5654 5655
5781 5778 5774 5770 5766 5762 5758 5753 5748 5744 5739 5734 5729 5725 5719 5714 5708 5703 5697 5690 5683 5677 5671 5666 5662 5658 5654 5649 5645 5642 5638 5635 5631 5628 5626 5624 5623 5623 5624 5624 5625 5627 5627 5629 5630 5630 5631 5633 5636 5637 5639 5640 5642 5643 5645 5646 5648 5649 5650 5651 5653 5654 5656
5781 5778 5774 5770 5766 5762 5758 5753 5748 5744 5739 5735 5730 5725 5720 5715 5709 5704 5699 5693 5687 5681 5675 5669 5664 5660 5656 5652 5649 5645 5641 5638 5635 5632 5630 5629 5628 5628 5628 5628 5629 5630 5631 5632 5633 5634 5634 5636 5638 5639 5640 5641 5643 5645 5647 5648 5649 5650 5650 5651 5653 5655 5657
5781 5778 5774 5770 5766 5762 5758 5753 5748 5744 5740 5736 5731 5726 5721 5716 5711 5706 5701 5695 5690 5685 5679 5673 5667 5662 5658 5654 5651 5648 5645 5641 5639 5636 5635 5633 5632 5632 5632 5632 5633 5634 5635 5636 5636 5637 5638 5639 5640 5641 5642 5643 5645 5647 5648 5649 5650 5651 5651 5652 5654 5656 5657
5780 5777 5774 5770 5766 5762 5757 5753 5748 5744 5740 5736 5732 5727 5722 5717 5712 5708 5702 5697 5692 5687 5682 5676 5671 5665 5660 5656 5653 5651 5648 5645 5642 5640 5638 5637 5636 5636 5635 5635 5636 5637 5638 5639 5639 5639 5640 5641 5642 5643 5644 5645 5647 5648 5649 5650 5651 5652 5653 5654 5655 5657 5658
5780 5777 5773 5770 5766 5762 5757 5753 5749 5745 5741 5737 5732 5728 5723 5719 5714 5709 5704 5699 5694 5689 5684 5680 5674 5669 5664 5658 5655 5652 5650 5647 5645 5642 5641 5640 5640 5638 5638 5638 5638 5638 5639 5640 5641 5642 5642 5642 5644 5645 5645 5647 5648 5649 5649 5650 5651 5653 5654 5655 5656 5658 5659
5779 5776 5773 5769 5766 5762 5757 5753 5749 5745 5741 5737 5733 5728 5724 5720 5715 5711 5706 5701 5696 5691 5686 5682 5677 5673 5667 5662 5657 5654 5651 5649 5647 5645 5643 5642 5642 5641 5640 5640 5639 5640 5640 5641 5642 5643 5643 5644 5645 5646 5646 5646 5647 5649 5650 5651 5652 5653 5654 5655 5657 5658 5659
5779 5776 5772 5769 5765 5761 5758 5754 5750 5746 5742 5738 5734 5729 5725 5721 5716 5712 5708 5703 5698 5693 5688 5684 5680 5675 5671 5666 5661 5656 5653 5651 5649 5647 5645 5644 5644 5643 5642 5641 5640 5640 5641 5641 5642 5644 5645 5645 5646 5647 5647 5647 5648 5649 5650 5651 5652 5653 5654 5655 5656 5658 5660
5778 5775 5772 5768 5765 5761 5757 5754 5750 5746 5742 5738 5734 5730 5726 5722 5718 5713 5709 5705 5700 5696 5691 5686 5682 5678 5673 5669 5664 5660 5656 5652 5650 5649 5647 5646 5645 5644 5643 5642 5642 5641 5641 5642 5643 5644 5645 5646 5647 5648 5648 5648 5649 5650 5650 5651 5652 5652 5653 5654 5656 5658 5660
5777 5774 5771 5768 5764 5761 5757 5754 5750 5747 5743 5739 5735 5731 5728 5724 5719 5715 5710 5706 5702 5698 5693 5689 5684 5681 5676 5672 5667 5663 5659 5655 5652 5650 5649 5648 5646 5646 5645 5644 5643 5643 5643 5642 5643 5644 5645 5646 5647 5647 5648 5649 5649 5649 5650 5651 5651 5652 5653 5654 5656 5658 5660
5776 5773 5770 5767 5764 5761 5757 5754 5751 5747 5743 5740 5736 5732 5728 5724 5721 5717 5713 5709 5704 5700 5695 5691 5687 5683 5679 5675 5670 5666 5662 5658 5654 5651 5650 5649 5648 5647 5646 5645 5645 5644 5644 5643 5643 5644 5644 5645 5646 5647 5647 5648 5649 5650 5650 5651 5652 5652 5653 5655 5656 5658 5660
5776 5773 5770 5767 5763 5760 5757 5754 5751 5747 5744 5740 5736 5732 5729 5725 5721 5718 5714 5710 5706 5701 5697 5693 5689 5685 5681 5677 5674 5669 5665 5661 5657 5653 5651 5650 5649 5648 5647 5646 5646 5645 5644 5644 5643 5644 5644 5645 5646 5646 5647 5648 5649 5649 5650 5651 5652 5653 5654 5655 5657 5658 5659
5774 5772 5769 5766 5763 5759 5756 5753 5750 5747 5743 5740 5736 5732 5728 5725 5721 5718 5714 5711 5707 5703 5699 5695 5691 5687 5683 5679 5676 5672 5668 5664 5660 5657 5653 5651 5649 5648 5648 5647 5647 5646 5645 5644 5644 5644 5644 5644 5645 5645 5646 5647 5648 5649 5649 5651 5652 5653 5654 5656 5657 5658 5659
5773 5770 5767 5764 5761 5758 5755 5752 5749 5746 5742 5739 5736 5732 5728 5725 5721 5718 5714 5711 5708 5705 5701 5697 5693 5689 5685 5681 5678 5674 5671 5667 5663 5660 5656 5653 5650 5648 5648 5647 5647 5646 5646 5645 5644 5643 5643 5643 5644 5644 5644 5645 5646 5647 5648 5649 5651 5653 5655 5656 5657 5658 5659
5771 5769 5766 5763 5760 5757 5754 5751 5748 5745 5741 5738 5735 5731 5728 5724 5721 5717 5714 5711 5708 5705 5702 5698 5694 5691 5687 5683 5679 5676 5673 5670 5666 5662 5659 5655 5652 5649 5647 5646 5646 5646 5645 5645 5644 5643 5643 5643 5643 5643 5644 5644 5644 5645 5646 5648 5650 5652 5654 5656 5656 5657 5658
5769 5767 5764 5761 5758 5755 5752 5749 5747 5744 5740 5737 5734 5730 5727 5724 5721 5717 5714 5711 5708 5704 5701 5698 5695 5692 5688 5685 5682 5678 5675 5671 5668 5664 5661 5658 5654 5651 5648 5646 5645 5645 5644 5644 5643 5642 5641 5641 5642 5642 5643 5643 5643 5643 5645 5647 5649 5651 5653 5654 5655 5656 5658
5768 5765 5762 5760 5757 5754 5751 5748 5745 5742 5739 5736 5733 5729 5726 5723 5720 5717 5714 5710 5707 5704 5701 5699 5696 5692 5689 5686 5683 5680 5676 5673 5670 5666 5663 5659 5656 5653 5650 5647 5645 5644 5644 5643 5643 5642 5641 5641 5641 5641 5642 5642 5643 5643 5645 5647 5649 5650 5652 5653 5655 5656 5658